Regional Weather Roundup
Issued by NWS

Home | Current Version | Previous Version | Text Only | Print | Product List | Glossary On
Versions: 1 2 3 4 5 6 7 8 9 10 11 12 13 14 15 16 17 18 19 20 21 22 23 24 25 26 27 28 29 30 31 32 33 34 35 36 37 38 39 40 41 42 43 44 45 46 47 48 49 50
000
ASUS44 KLUB 250610
RWRTX
WEST TEXAS WEATHER ROUNDUP
NATIONAL WEATHER SERVICE LUBBOCK TX
100 AM CDT FRI JUL 25 2014

NOTE: "FAIR" INDICATES FEW OR NO CLOUDS BELOW 12,000 FEET WITH NO
SIGNIFICANT WEATHER AND/OR OBSTRUCTIONS TO VISIBILITY.

TXZ004-006>008-010-012-014-016-OKZ002-250700-
TEXAS PANHANDLE/OKLAHOMA PANHANDLE

CITY           SKY/WX    TMP DP  RH WIND       PRES   REMARKS
AMARILLO       CLEAR     79  61  53 S20       30.11S
BORGER         CLEAR     83  62  49 S20G29    30.04F
CANADIAN       MOCLDY    83  67  58 S23G29    30.00S
DALHART        CLEAR     77  56  48 S14       30.10S
DUMAS          CLEAR     77  57  50 S13       30.08S
GUYMON         CLEAR     81  58  45 S17       29.99S
HEREFORD       CLEAR     75  64  67 S12       30.13S
PAMPA          CLEAR     78  61  56 S18G24    30.08S
PERRYTON       MOCLDY    82  64  53 S21       30.02S
$$

TXZ026-029-035-045-048-250700-
SOUTHERN PANHANDLE/SOUTH PLAINS/ROLLING PLAINS

CITY           SKY/WX    TMP DP  RH WIND       PRES   REMARKS
CHILDRESS      CLEAR     79  66  64 S8        30.04S
SEMINOLE       CLEAR     81  58  44 SE8       30.14R
LUBBOCK        CLEAR     79  59  50 SE9       30.12R
PLAINVIEW      CLEAR     75  64  67 S9        30.11F
SNYDER         CLEAR     82  64  53 SE12G18   30.09S
$$

TXZ052-054-060>062-072-078-127-140-154-169-250700-
PERMIAN BASIN/CONCHO VALLEY/BIG COUNTRY/EDWARDS PLATEAU

CITY           SKY/WX    TMP DP  RH WIND       PRES   REMARKS
ABILENE        CLEAR     79  66  64 SE8       30.06S
BIG SPRING     CLEAR     82  59  46 SE8       30.11S
BRADY          CLEAR     77  66  69 CALM      30.06S
BROWNWOOD      MOCLDY    75  66  73 CALM      30.04S
JUNCTION       CLEAR     77  67  71 CALM      30.06S
MIDLAND        CLEAR     83  60  45 SE17      30.10R
ODESSA         CLEAR     82  61  48 SE15      30.11R
SAN ANGELO     CLEAR     80  65  59 S7        30.06S
SONORA         CLEAR     77  64  65 CALM      30.12F
SWEETWATER     CLEAR     81  64  55 SE9       30.12R
WINK           CLEAR     86  57  37 SE9       30.06R
$$

TXZ055-058-074-075-080-082-250700-
FAR WEST/SOUTHWEST MOUNTAINS/TRANS PECOS

CITY           SKY/WX    TMP DP  RH WIND       PRES   REMARKS
ALPINE         CLEAR     76  55  48 SE8       30.25R
DRYDEN           N/A     84  64  50 SE5       30.05R
EL PASO        PTCLDY    85  49  28 SE6       30.11R
FORT STOCKTON  CLEAR     80  58  46 S9        30.10R
GUADALUPE PASS CLEAR     79  47  32 SE15        N/A
MARFA          CLEAR     70  54  56 E3        30.25R
PECOS          CLEAR     82  54  38 SE7       30.06R
PRESIDIO       FAIR      83  55  37 E3        30.08S
$$

TXZ014-016-019-021>030-083-250700
TEXAS TECH WEST TEXAS MESONET/TEXAS PANHANDLE/NORTHERN SOUTH PLAINS

CITY           SKY/WX    TMP DP  RH WIND       PRES   REMARKS
ABERNATHY 5ENE   N/A     75  59  58 SE8       30.13F
AMARILLO 9NNE    N/A     76  62  61 S13       30.08S
AMARILLO 7SSE    N/A     77  62  59 S15       30.12S
AMHERST 1NE      N/A     76  59  54 SE10      30.13F
CANADIAN 6E      N/A     80  66  62 S13       30.00F
CAPROCK CYN SP   N/A     75  64  69 S8        30.08S
CHILDRESS 2NNE   N/A     80  67  63 SE9       30.03S
CLARENDON 2WSW   N/A     78  64  61 S10       30.08S
CLAUDE 12SW      N/A     79  62  56 S10       30.11F
DIMMITT 2NE      N/A     73  60  63 SE13      30.14S
FLOYDADA 2NNE    N/A     74  62  64 SE8       30.12S
FRIONA 2NE       N/A     75  58  54 S14       30.15S
GOODLETT 3W      N/A     81  67  62 SE9       30.01S
HART 3N          N/A     74  60  61 SE9       30.14S
HEREFORD 2NW     N/A     76  58  53 S13       30.13S
MCLEAN 1E        N/A     76  65  66 S13       30.06S
MEMPHIS 1NE      N/A     80  66  62 SE5       30.04R
MULESHOE 2SSW    N/A     77  57  50 SE13      30.13F
OLTON 6S         N/A     72  59  62 SE9       30.13F
PALO DURO SP     N/A     79  61  54 S13       30.13S
PAMPA 2E         N/A     77  64  62 S15       30.08S
PLAINVIEW 1S     N/A     76  62  61 SE10      30.12S
SILVERTON 7ESE   N/A     74  62  66 S8        30.11S
TULIA 2ENE       N/A     75  63  65 S13       30.12F
TURKEY 2WSW      N/A     78  65  63 S8        30.06S
UMBARGER 3NNE    N/A     76  60  58 S17       30.13S
$$

TXZ033>036-039>041-045>048-250700
TEXAS TECH WEST TEXAS MESONET/SOUTH PLAINS

CITY           SKY/WX    TMP DP  RH WIND       PRES   REMARKS
AIKEN 3WSW       N/A     74  63  68 SE8       30.13F
ANTON 6SSW       N/A     78  61  55 SE10      30.13S
BROWNFIELD 2S    N/A     79  59  49 S12       30.13S
DENVR CTY 7WNW   N/A     76  55  48 SE9       30.14R
GAIL 2ESE        N/A     82  60  48 S7        30.08S
LAMESA 2SE       N/A     80  60  51 SE7       30.12R
LEVELLAND 4S     N/A     77  57  50 SE8       30.14S
LUBBOCK 3WNW     N/A     81  58  45 SE9       30.13S
MORTON 1ENE      N/A     77  56  48 SE10      30.14S
ODONNELL 1N      N/A     81  59  47 SE6       30.12S
PLAINS 3N        N/A     75  56  52 SE8       30.15R
RALLS 1SE        N/A     77  61  57 SE8       30.13R
REESE CENTER     N/A     80  57  46 SE12      30.13S
SEAGRAVES 1SW    N/A     80  59  49 SE7       30.13S
SEMINOLE 2NNE    N/A     81  57  44 SE9       30.13R
SLATON 2NE       N/A     76  60  56 S8        30.12S
SNYDER 3E        N/A     81  63  53 SE12      30.08R
SUNDOWN 8SW      N/A     76  58  54 SE10      30.14S
TAHOKA 3NNE      N/A     79  60  51 SE8       30.11F
WOLFFORTH 6SSW   N/A     79  58  48 SE7       30.13S
$$

TXZ031-032-036>038-042>044-250700-
TEXAS TECH WEST TEXAS MESONET/ROLLING PLAINS

CITY           SKY/WX    TMP DP  RH WIND       PRES   REMARKS
ASPERMONT 3NE    N/A     81  64  54 S6        30.03F
FLUVANNA 3WNW    N/A     82  60  48 SE9       30.10S
GRAHAM 5SSW      N/A     82  60  46 SE12      30.10F
GUTHRIE 10WSW    N/A     78  64  63 SE8       30.04R
HASKELL 1NW      N/A     81  63  54 S5        30.02F
JAYTON 1SSE      N/A     80  62  55 SE7       30.05S
KNOX CITY 3NW    N/A     82  63  51 SE8       30.02S
LK A HENRY 1NW   N/A     83  63  51 S6        30.06F
NORTHFIELD 1S    N/A     80  65  61 S10       30.04S
ODELL 4ENE       N/A     81  69  66 SE10      30.01S
PADUCAH 10SW     N/A     80  64  58 SE9       30.03F
POST 1NE         N/A     83  60  46 S7        30.09S
RRING SPRGS 3N   N/A     75  64  67 S7        30.08S
SEYMOUR 3NW      N/A     82  64  54 SE9       30.01S
SPUR 1W          N/A     78  62  57 S1        30.06S
WEINERT 2NNE     N/A     80  65  61 S6        30.02F
WHITE RVR 6NE    N/A     80  60  50 SE6       30.09S
$$

TXZ052-054-060>062-072-078-127-140-154-169-250700-
TEXAS TECH WEST TEXAS MESONET/PERMIAN BASIN/
CONCHO VALLEY/BIG COUNTRY/EDWARDS PLATEAU

CITY           SKY/WX    TMP DP  RH WIND       PRES   REMARKS
COYANOSA 2N      N/A     82  60  46 SE6       30.07R
JUNCTION 1SSW    N/A     72  66  82 CALM      30.07S
MERTZON 3NNE     N/A     77  64  63 S5        30.09S
SAN ANGELO 7NW   N/A     78  62  56 SE5       30.07S
STRLNG CT 4WSW   N/A     80  62  53 SE7       30.09S
ST LAWRNCE 5SW   N/A     78  59  53 SE10      30.10S
SWEETWATR 11SW   N/A     79  65  61 SE9       30.10S
WALL 1E          N/A     78  62  56 S6        30.06S
$$

TXZ055-058-074-075-080-082-250700-
TEXAS TECH WEST TEXAS MESONET/FAR WEST/SOUTHWEST MOUNTAINS/TRANS PECOS

CITY           SKY/WX    TMP DP  RH WIND       PRES   REMARKS
PRSMN GAP BBNP   N/A     81  60  48 SE7       30.09S
GUADLPE MTN NP   N/A     75  46  34 N5        30.29S
$$


USA.gov is the U.S. government's official web portal to all federal, state and local government web resources and services.